Home > Weather > Arviat > Past weeks

Flag for Canada Past Weather in Arviat, Nunavut, Canada — Yesterday and Last 2 Weeks

Now
32 °F

Overcast.


Feels Like: 21 °F
Forecast: 26 / 33 °F
Wind: 16 mph from Northeast

Location: Arviat Airport

Current Time: May 26, 2016 at 3:23:11 PM

Latest Report: May 26, 2016 at 3:00 PM


Visibility: 15 mi

Pressure: 30.27 "Hg

Humidity: 80%

Dew Point: 27 °F

Location of ArviatLocation

Past Weather in Arviat — Graph

°F

Arviat Temperature Yesterday

Maximum temperature yesterday: 36 °F (at 12:00 PM)
Minimum temperature yesterday: 28 °F (at 12:00 AM)
Average temperature yesterday: 31 °F

High & Low Weather Summary for the Past Weeks

 TemperatureHumidityPressure
High39 °F (May 21, 6:00 PM)100% (May 12, 12:00 AM)30.41 "Hg (May 12, 12:00 AM)
Low12 °F (May 14, 4:00 AM)70% (May 24, 7:00 PM)29.65 "Hg (May 22, 10:00 AM)
Average28 °F90%30.08 "Hg
* Reported May 11 2:00 PM — May 26 2:00 PM, Arviat, Weather by CustomWeather, © 2016

Note: Actual official high and low records may vary slightly from our data, if they occured in-between our weather recording intervals... More about our weather records

Advertising

Arviat Weather History for the Previous 24 Hours

Scroll right to see more
 ConditionsComfort  
Time TempWeatherWind HumidityBarometerVisibility
2:00 PM
Thu, May 26
32 °FOvercast.15 mph80%30.26 "Hg12 mi
1:00 PM32 °FOvercast.17 mph80%30.24 "Hg12 mi
12:00 PM32 °FOvercast.18 mph80%30.24 "Hg15 mi
11:00 AM32 °FOvercast.21 mph75%30.22 "Hg15 mi
10:00 AM32 °FOvercast.21 mph80%30.21 "Hg15 mi
9:00 AM32 °FOvercast.20 mph80%30.21 "Hg15 mi
8:00 AM30 °FOvercast.18 mph86%30.20 "Hg15 mi
7:00 AM30 °FOvercast.22 mph86%30.20 "Hg12 mi
6:00 AM30 °FOvercast.18 mph86%30.19 "Hg9 mi
5:00 AM30 °FOvercast.20 mph86%30.18 "Hg9 mi
4:00 AM30 °FMostly cloudy.18 mph93%30.18 "Hg9 mi
3:00 AM30 °FOvercast.16 mph93%30.18 "Hg9 mi
2:00 AM30 °FMostly cloudy.17 mph93%30.18 "Hg9 mi
1:00 AM30 °FOvercast.17 mph93%30.18 "Hg9 mi
12:00 AM30 °FOvercast.17 mph93%30.19 "Hg9 mi
11:00 PM
Wed, May 25
30 °FMostly cloudy.18 mph86%30.18 "Hg9 mi
10:00 PM30 °FPassing clouds.17 mph93%30.18 "Hg9 mi
9:00 PM30 °FScattered clouds.15 mph93%30.18 "Hg9 mi
8:00 PM32 °FSunny.16 mph87%30.18 "Hg9 mi
7:00 PM32 °FScattered clouds.15 mph80%30.18 "Hg9 mi
6:00 PM32 °FPassing clouds.13 mph80%30.19 "Hg9 mi
5:00 PM32 °FOvercast.14 mph80%30.19 "Hg15 mi
3:00 PM34 °FOvercast.13 mph75%30.18 "Hg15 mi
Weather by CustomWeather, © 2016

See weather overviewHow to use our weather pages